This is the latest recevied weather packets stored in our database for station/object JE0GNV-13. If no packets are shown the sender has not sent any weather packets the latest 10 day(s).
| Time | Temp. | Humidity | Pressure | Rain* | Wind** | Luminosity | Snow |
|---|---|---|---|---|---|---|---|
| 1777843800 | 15.56° C | 92% | 998.6 hPa | 1.27 mm | - | - | - |
| 1777843201 | 16.11° C | 97% | 998.6 hPa | 1.52 mm | - | - | - |
| 1777842600 | 16.67° C | 98% | 998.6 hPa | 1.27 mm | - | - | - |
| 1777842001 | 16.67° C | 98% | 998.2 hPa | 1.52 mm | - | - | - |
| 1777841401 | 16.67° C | 99% | 998.1 hPa | 2.03 mm | - | - | - |
| 1777840801 | 16.67° C | 99% | 998.1 hPa | 2.79 mm | - | - | - |
| 1777840200 | 16.11° C | 99% | 997.6 hPa | 3.56 mm | - | - | - |
| 1777839602 | 15.56° C | 99% | 997.4 hPa | 3.81 mm | - | - | - |
| 1777839001 | 15.56° C | 99% | 997.3 hPa | 4.83 mm | - | - | - |
| 1777838401 | 15.56° C | 99% | 997.4 hPa | 5.33 mm | - | - | - |
| 1777837800 | 15° C | 99% | 997.3 hPa | 5.84 mm | - | - | - |
| 1777837200 | 15° C | 99% | 997.3 hPa | 5.59 mm | - | - | - |
| 1777836602 | 15° C | 98% | 997.3 hPa | 4.57 mm | - | - | - |
| 1777836000 | 15° C | 98% | 997.7 hPa | 4.57 mm | - | - | - |
| 1777835400 | 15° C | 99% | 997.8 hPa | 3.81 mm | - | - | - |
| 1777834802 | 14.44° C | 99% | 997.4 hPa | 3.3 mm | - | - | - |
| 1777834201 | 14.44° C | 98% | 997.5 hPa | 2.54 mm | - | - | - |
| 1777833601 | 14.44° C | 98% | 997.5 hPa | 3.05 mm | - | - | - |
| 1777833001 | 14.44° C | 98% | 997.8 hPa | 4.06 mm | - | - | - |
| 1777832400 | 14.44° C | 98% | 998 hPa | 4.57 mm | - | - | - |
| 1777831801 | 14.44° C | 98% | 998 hPa | 4.83 mm | - | - | - |
| 1777831200 | 14.44° C | 98% | 998.5 hPa | 5.08 mm | - | - | - |
| 1777830601 | 14.44° C | 98% | 998.5 hPa | 5.08 mm | - | - | - |
| 1777830001 | 13.89° C | 98% | 998.5 hPa | 4.83 mm | - | - | - |
| 1777829400 | 13.89° C | 98% | 999 hPa | 5.08 mm | - | - | - |
* Rain latest hour (hover to see other rain measurements)
** Current wind speed in m/s (hover to see current wind gust speed)